Погода в Балканах

Россия / Челябинская область     53°26′12″N   59°36′18″E
темп.,
°C
ветер,
м/с
пор.,
м/с
влажн.,
%
обл.,
%
осадки,
мм/ч
давл.,
гПа
погр.,
м
25 января, пн
пн2523:00−6зюз469498 0.3 102995
02:00+1зюз5119561 0.0 1029376
05:00−2з6128672 0.0 1030352
08:00−2з512890 0.0 1031269
11:00−2з511893 0.0 1033326
14:00−1зюз598834 0.0 1033355
17:00−3зюз478717 0.0 1034114
20:00−5зюз448926 0.0 103556
26 января, вт
вт2623:00−5юз5109327 0.0 1035174
02:00−3зюз698955 0.0 1035368
05:00−6юз598954 0.0 1035145
08:00−6юз499255 0.0 1035148
11:00−5юз369276 0.0 1035131
14:00−4юз5990100 0.0 1034241
17:00−5юз5992100 0.0 1034181
20:00−6юз51092100 0.0 1034155
27 января, ср
ср2723:00−6юз51092100 0.0 1034184
02:00−6юз5994100 0.0 1034160
05:00−7юз489592 0.0 1034138
08:00−7юз4796100 0.0 1034125
11:00−6юз4894100 0.0 1034189
14:00−3юз5892100 0.0 1033249
17:00−5ююз4894100 0.0 1033159
20:00−8ююз4995100 0.0 1034137
28 января, чт
чт2823:00−9ююз499788 0.0 1033137
02:00−7юз51098100 0.0 1033250
05:00−5ююз61096100 0.1 1033316
08:00−5юз6995100 0.0 1033296
11:00−8ююз5109498 0.0 1032221
14:00−8ююз6119399 0.0 1031289
17:00−9ююз5119392 0.0 1030242
20:00−11ююз4119379 0.0 1031197
29 января, пт
пт2923:00−12ююз499587 0.0 1030173
02:00−12ююз41093100 0.0 1030200
05:00−13ююз3992100 0.0 1029152
08:00−15ююз3493100 0.0 102880
11:00−13ююз3792100 0.0 1027187
14:00−10ююз3790100 0.0 1026260
17:00−11ююз2289100 0.0 102424
20:00−11ююв2291100 0.0 102421